DW5310 Weather Reports


Display with metric or nautical units.
time (UTC)temp
F
wind
direction
speed
MPH
gust
MPH
rain 1hr
in
rain 24hr
in
rain mn
in
humidity
%
barometer
mb
20200331231505 47 189 4.0 9.0 0.00 1.32 0.21 75 1016.5
20200331231004 46 82 2.0 5.0 0.00 1.32 0.21 81 1016.5
20200331230503 46 97 2.0 2.0 0.00 1.32 0.21 82 1016.5
20200331230003 45 68 1.0 2.0 0.00 1.32 0.21 83 1016.5
20200331225504 46 22 0.0 2.0 0.00 1.32 0.21 83 1016.5
20200331225004 46 70 1.0 5.0 0.00 1.32 0.21 82 1016.5
20200331224504 46 95 2.0 5.0 0.00 1.32 0.21 81 1016.5
20200331224004 46 70 1.0 3.0 0.00 1.32 0.21 82 1016.5
20200331223503 45 348 0.0 0.0 0.00 1.32 0.21 84 1016.5
20200331223004 43 355 2.0 3.0 0.00 1.32 0.21 84 1016.5
20200331222504 42 338 3.0 6.0 0.00 1.32 0.21 80 1016.5
20200331222006 42 338 3.0 5.0 0.00 1.32 0.21 77 1016.5
20200331221505 44 334 4.0 9.0 0.00 1.32 0.21 74 1016.5
20200331221003 45 287 3.0 8.0 0.00 1.32 0.21 75 1016.5
20200331220503 46 292 1.0 2.0 0.00 1.32 0.21 72 1016.5
20200331220004 46 237 2.0 3.0 0.04 1.32 0.21 74 1015.5
20200331215505 47 0 1.0 5.0 0.04 1.32 0.21 73 1015.5
20200331215006 47 342 2.0 6.0 0.04 1.32 0.21 73 1015.5
20200331214505 47 4 2.0 6.0 0.04 1.32 0.21 72 1016.5
20200331214006 48 296 2.0 6.0 0.04 1.32 0.21 75 1016.5
20200331213505 48 12 2.0 5.0 0.04 1.32 0.21 73 1016.5
20200331213006 49 47 1.0 2.0 0.04 1.32 0.21 75 1016.5
20200331212504 49 192 2.0 5.0 0.04 1.32 0.21 76 1016.5
20200331212005 47 202 1.0 5.0 0.04 1.32 0.21 76 1016.5
20200331211505 48 232 3.0 7.0 0.08 1.32 0.21 76 1016.5
20200331211005 47 209 3.0 6.0 0.08 1.32 0.21 79 1016.5
20200331210505 46 227 1.0 3.0 0.08 1.32 0.21 76 1016.5
20200331210005 46 204 2.0 6.0 0.04 1.28 0.17 75 1016.5
20200331205505 47 285 2.0 5.0 0.04 1.28 0.17 74 1016.5
20200331205005 47 278 2.0 5.0 0.04 1.28 0.17 74 1016.5
20200331204506 47 282 2.0 3.0 0.04 1.28 0.17 75 1016.5
20200331204005 47 236 2.0 5.0 0.04 1.28 0.17 76 1016.5
20200331203504 46 196 3.0 5.0 0.04 1.28 0.17 75 1016.5
20200331203005 45 231 0.0 1.0 0.04 1.28 0.17 75 1016.5
20200331202504 45 202 1.0 3.0 0.04 1.28 0.17 71 1016.5
20200331202005 46 292 2.0 6.0 0.04 1.28 0.17 71 1016.5
20200331201505 48 269 2.0 7.0 0.00 1.24 0.13 64 1016.5
20200331201005 50 180 6.0 13.0 0.00 1.24 0.13 61 1016.5
20200331200505 50 190 6.0 15.0 0.00 1.24 0.13 64 1016.5
20200331200005 50 185 5.0 8.0 0.00 1.24 0.13 65 1016.5
20200331195505 50 193 6.0 14.0 0.00 1.24 0.13 66 1016.5
20200331195005 49 194 6.0 12.0 0.00 1.24 0.13 67 1016.5
20200331194505 49 191 13.0 17.0 0.00 1.24 0.13 65 1016.5
20200331194005 50 187 6.0 16.0 0.00 1.24 0.13 69 1016.5
20200331193505 48 194 5.0 10.0 0.00 1.24 0.13 72 1016.5
20200331193007 48 180 4.0 16.0 0.00 1.24 0.13 74 1017.5
20200331192505 48 183 5.0 8.0 0.00 1.24 0.13 79 1017.5
20200331192005 46 210 2.0 5.0 0.00 1.24 0.13 80 1017.5
20200331191505 46 202 6.0 12.0 0.00 1.24 0.13 80 1016.5
20200331191005 44 190 5.0 8.0 0.00 1.24 0.13 78 1016.5
20200331190505 44 230 3.0 7.0 0.00 1.24 0.13 77 1016.5
20200331190007 44 214 3.0 8.0 0.00 1.24 0.13 76 1016.5
20200331185505 44 282 1.0 3.0 0.00 1.24 0.13 76 1016.5
20200331185005 45 214 1.0 6.0 0.00 1.24 0.13 73 1016.5
20200331184504 46 192 3.0 9.0 0.00 1.24 0.13 71 1016.5
20200331184006 47 224 2.0 10.0 0.00 1.24 0.13 67 1016.5
20200331183505 48 183 10.0 15.0 0.00 1.24 0.13 63 1016.5
20200331183005 49 177 3.0 15.0 0.00 1.28 0.13 72 1016.5
20200331182505 47 190 11.0 14.0 0.00 1.28 0.13 67 1016.5
20200331182005 47 199 5.0 12.0 0.00 1.28 0.13 73 1016.5
20200331181505 47 189 6.0 14.0 0.00 1.28 0.13 72 1016.5
20200331181005 47 189 6.0 10.0 0.00 1.28 0.13 73 1016.5
20200331180505 46 183 6.0 10.0 0.00 1.28 0.13 75 1016.5
20200331180005 46 190 5.0 9.0 0.00 1.28 0.13 77 1016.5
20200331175505 45 190 2.0 10.0 0.00 1.28 0.13 79 1016.5
20200331175006 44 187 6.0 12.0 0.00 1.28 0.13 81 1016.5
20200331174505 44 190 10.0 14.0 0.00 1.28 0.13 80 1016.5
20200331174005 44 202 3.0 7.0 0.00 1.28 0.13 86 1016.5
20200331173505 44 199 6.0 9.0 0.00 1.28 0.13 85 1016.5
20200331173005 44 191 5.0 10.0 0.00 1.28 0.13 87 1016.5
20200331172506 44 189 3.0 9.0 0.00 1.28 0.13 86 1016.5
20200331172005 43 174 2.0 12.0 0.00 1.28 0.13 87 1016.5
20200331171505 43 197 6.0 13.0 0.00 1.28 0.13 86 1016.5
20200331171005 44 183 7.0 12.0 0.00 1.28 0.13 89 1016.5
20200331170505 44 185 6.0 10.0 0.00 1.28 0.13 92 1016.5
20200331170005 43 193 7.0 13.0 0.00 1.28 0.13 94 1015.5
20200331165505 43 202 3.0 12.0 0.00 1.28 0.13 94 1015.5
20200331165005 43 192 3.0 12.0 0.00 1.28 0.13 95 1015.5
20200331164504 43 197 4.0 9.0 0.00 1.28 0.13 96 1015.5
20200331164005 43 194 3.0 8.0 0.00 1.33 0.13 97 1015.5
20200331163505 42 202 2.0 6.0 0.00 1.33 0.13 97 1015.5
20200331163006 42 197 3.0 8.0 0.00 1.33 0.13 98 1015.5
20200331162505 42 202 3.0 6.0 0.00 1.33 0.13 98 1015.5
20200331162005 42 202 3.0 7.0 0.00 1.33 0.13 98 1015.5
20200331161505 41 202 2.0 3.0 0.00 1.33 0.13 98 1015.5
20200331161005 41 199 3.0 7.0 0.00 1.33 0.13 98 1015.5
20200331160505 41 198 3.0 7.0 0.00 1.33 0.13 98 1015.5
20200331160005 41 194 5.0 12.0 0.00 1.33 0.13 98 1014.5
20200331155505 41 193 5.0 9.0 0.00 1.33 0.13 98 1014.5
20200331155005 41 194 3.0 10.0 0.00 1.33 0.13 98 1014.5
20200331154504 40 191 7.0 10.0 0.00 1.33 0.13 98 1014.5
20200331154005 40 202 5.0 12.0 0.00 1.33 0.13 98 1014.5
20200331153505 39 202 5.0 6.0 0.00 1.33 0.13 98 1014.5
20200331153004 39 202 4.0 7.0 0.00 1.33 0.13 98 1014.5
20200331152505 39 202 6.0 12.0 0.05 1.33 0.13 98 1014.5
20200331152005 39 202 5.0 10.0 0.05 1.33 0.13 98 1014.5
20200331151505 39 210 5.0 8.0 0.05 1.33 0.13 98 1014.5
20200331151005 39 197 4.0 7.0 0.05 1.33 0.13 98 1014.5
20200331150505 39 185 5.0 6.0 0.05 1.33 0.13 98 1014.5
20200331150005 39 202 5.0 8.0 0.05 1.33 0.13 98 1014.5
20200331145505 39 183 5.0 8.0 0.05 1.33 0.13 98 1014.5
20200331145005 39 196 3.0 6.0 0.05 1.33 0.13 98 1014.5
20200331144505 39 202 2.0 8.0 0.05 1.33 0.13 98 1014.5
20200331144006 39 190 3.0 8.0 0.05 1.33 0.13 98 1014.5
20200331143506 39 202 3.0 6.0 0.05 1.33 0.13 98 1014.5
20200331143005 39 193 3.0 7.0 0.05 1.33 0.13 98 1014.5
20200331142505 39 202 2.0 3.0 0.00 1.28 0.09 98 1014.5
20200331142005 39 202 3.0 7.0 0.00 1.28 0.09 98 1014.5
20200331141505 39 192 4.0 7.0 0.00 1.28 0.09 98 1014.5
20200331141005 39 202 4.0 7.0 0.00 1.28 0.09 98 1014.5
20200331140505 39 202 3.0 6.0 0.00 1.28 0.09 98 1014.5
20200331140006 39 202 5.0 9.0 0.00 1.32 0.09 98 1013.5
20200331135505 39 195 6.0 10.0 0.00 1.32 0.09 98 1013.5
20200331135005 39 188 6.0 9.0 0.00 1.32 0.09 98 1013.5
20200331134505 39 187 5.0 8.0 0.00 1.32 0.09 98 1013.5
20200331134005 39 195 3.0 6.0 0.00 1.32 0.09 98 1013.5
20200331133505 39 202 3.0 7.0 0.00 1.32 0.09 98 1013.5
20200331133004 39 193 3.0 7.0 0.00 1.32 0.09 98 1013.5
20200331132505 39 202 3.0 6.0 0.00 1.32 0.09 98 1013.5
20200331132005 39 202 5.0 9.0 0.00 1.32 0.09 98 1013.5
20200331131505 39 191 4.0 8.0 0.00 1.32 0.09 98 1013.5
20200331131005 39 185 4.0 8.0 0.00 1.32 0.09 98 1013.5
20200331130505 39 187 6.0 10.0 0.00 1.32 0.09 98 1013.5
20200331130006 39 202 4.0 6.0 0.00 1.32 0.09 98 1012.5
20200331125505 39 201 3.0 5.0 0.00 1.32 0.09 98 1012.5
20200331125005 39 197 5.0 9.0 0.00 1.32 0.09 98 1012.5
20200331124505 39 202 4.0 8.0 0.00 1.32 0.09 98 1012.5
20200331124005 39 175 11.0 13.0 0.00 1.32 0.09 98 1012.5
20200331123505 40 182 11.0 15.0 0.00 1.32 0.09 98 1012.5
20200331123005 40 195 9.0 13.0 0.00 1.32 0.09 98 1013.5
20200331122505 40 199 6.0 10.0 0.00 1.32 0.09 98 1013.5
20200331122005 40 202 6.0 10.0 0.00 1.32 0.09 98 1013.5
20200331121505 40 197 6.0 13.0 0.00 1.32 0.09 98 1012.5
20200331121014 40 185 5.0 8.0 0.00 1.32 0.09 98 1012.5
20200331120505 40 182 5.0 7.0 0.00 1.32 0.09 98 1012.5
20200331120005 40 202 5.0 8.0 0.00 1.32 0.09 98 1012.5
20200331115505 40 202 1.0 3.0 0.00 1.32 0.09 98 1012.5
20200331115005 40 202 6.0 15.0 0.00 1.32 0.09 98 1012.5
20200331114505 40 202 4.0 9.0 0.00 1.32 0.09 98 1012.5
20200331114005 40 194 5.0 9.0 0.00 1.32 0.09 98 1012.5
20200331113505 40 192 7.0 12.0 0.00 1.32 0.09 98 1012.5
20200331113006 40 185 5.0 8.0 0.00 1.32 0.09 98 1012.5
20200331112505 40 202 3.0 5.0 0.00 1.32 0.09 98 1012.5
20200331112005 40 201 5.0 8.0 0.00 1.32 0.09 98 1012.5
20200331111505 40 197 4.0 10.0 0.00 1.32 0.09 98 1012.5
20200331111005 40 202 6.0 8.0 0.00 1.32 0.09 98 1012.5
20200331110505 41 189 6.0 7.0 0.00 1.32 0.09 98 1012.5
20200331110004 41 186 5.0 10.0 0.00 1.32 0.09 98 1013.5
20200331105505 41 180 7.0 12.0 0.00 1.32 0.09 98 1013.5
20200331105005 41 187 3.0 12.0 0.00 1.32 0.09 98 1013.5
20200331104511 41 202 2.0 7.0 0.00 1.32 0.09 98 1012.5
20200331104005 41 202 3.0 6.0 0.00 1.32 0.09 98 1012.5
20200331103505 41 186 4.0 6.0 0.00 1.32 0.09 98 1012.5
20200331103005 41 202 2.0 5.0 0.00 1.32 0.09 98 1013.5
20200331102505 41 202 2.0 5.0 0.00 1.32 0.09 98 1013.5
20200331102006 41 202 1.0 3.0 0.00 1.32 0.09 98 1013.5
20200331101505 41 202 0.0 3.0 0.00 1.32 0.09 98 1013.5
20200331101005 41 202 3.0 5.0 0.00 1.32 0.09 98 1013.5
20200331100505 41 202 0.0 5.0 0.00 1.32 0.09 98 1013.5
20200331100005 41 202 2.0 5.0 0.00 1.32 0.09 98 1013.5
20200331095505 41 202 3.0 9.0 0.04 1.32 0.09 98 1013.5
20200331095005 41 202 2.0 3.0 0.04 1.32 0.09 98 1013.5
20200331094505 41 198 3.0 8.0 0.09 1.32 0.09 98 1013.5
20200331094005 41 199 3.0 8.0 0.09 1.32 0.09 98 1013.5
20200331093505 41 193 3.0 7.0 0.09 1.32 0.09 98 1013.5
20200331093009 41 197 5.0 9.0 0.09 1.32 0.09 98 1012.5
20200331092504 41 195 5.0 9.0 0.09 1.32 0.09 98 1012.5
20200331092004 41 202 2.0 5.0 0.09 1.32 0.09 98 1012.5
20200331091007 41 202 2.0 5.0 0.09 1.32 0.09 98 1013.5
20200331090505 41 191 3.0 12.0 0.09 1.32 0.09 98 1013.5
20200331090006 41 202 5.0 7.0 0.09 1.32 0.09 98 1013.5
20200331085505 41 202 2.0 3.0 0.05 1.28 0.05 98 1013.5
20200331085005 41 202 2.0 6.0 0.05 1.28 0.05 98 1013.5
20200331084505 41 202 3.0 6.0 0.00 1.24 0.00 98 1013.5
20200331084004 41 202 5.0 12.0 0.00 1.24 0.00 98 1013.5
20200331083505 41 198 5.0 12.0 0.00 1.24 0.00 98 1013.5
20200331083006 41 189 8.0 14.0 0.00 1.24 0.00 98 1013.5
20200331082507 41 182 7.0 13.0 0.00 1.24 0.00 98 1013.5
20200331082005 41 201 9.0 13.0 0.00 1.24 0.00 98 1013.5
20200331081505 41 187 6.0 10.0 0.00 1.24 0.00 98 1013.5
20200331081005 41 199 5.0 10.0 0.00 1.24 0.00 98 1013.5
20200331080505 41 192 9.0 17.0 0.00 1.24 0.00 98 1013.5
20200331080007 41 182 7.0 12.0 0.00 1.24 0.00 98 1013.5
20200331075504 41 186 8.0 15.0 0.00 1.24 0.00 98 1013.5
20200331075005 41 189 9.0 15.0 0.00 1.24 0.00 98 1013.5
20200331074505 41 189 10.0 17.0 0.00 1.24 0.00 98 1013.5
20200331074005 41 185 14.0 23.0 0.00 1.24 0.00 98 1013.5
20200331073505 41 197 13.0 20.0 0.00 1.24 0.00 98 1013.5
20200331073006 41 202 10.0 13.0 0.00 1.24 0.00 98 1013.5
20200331072505 41 197 10.0 16.0 0.00 1.24 0.00 98 1013.5
20200331072005 41 196 7.0 13.0 0.00 1.24 0.00 98 1013.5
20200331071505 41 202 10.0 15.0 0.00 1.24 0.00 98 1014.5
20200331071005 41 190 10.0 21.0 0.00 1.24 0.00 98 1014.5
20200331070504 41 192 12.0 21.0 0.00 1.24 0.00 98 1014.5
20200331070005 41 198 8.0 14.0 0.00 1.24 0.00 98 1014.5
20200331065505 41 177 7.0 18.0 0.00 1.24 0.51 98 1014.5
20200331065005 41 196 7.0 13.0 0.00 1.24 0.51 98 1014.5
20200331064505 41 202 7.0 13.0 0.00 1.24 0.51 98 1013.5
20200331064005 41 194 6.0 9.0 0.00 1.24 0.51 98 1013.5
20200331063505 41 199 10.0 17.0 0.00 1.24 0.51 98 1013.5
20200331063007 41 201 8.0 17.0 0.00 1.24 0.51 98 1013.5
20200331062005 42 181 4.0 12.0 0.00 1.24 0.51 98 1013.5
20200331061505 42 202 7.0 14.0 0.00 1.24 0.51 98 1013.5
20200331061005 42 189 6.0 15.0 0.00 1.24 0.51 98 1013.5
20200331060505 42 191 10.0 17.0 0.00 1.24 0.51 98 1013.5
20200331060005 42 195 5.0 12.0 0.00 1.24 0.51 98 1013.5
20200331055505 42 184 10.0 14.0 0.00 1.24 0.51 98 1013.5
20200331055005 42 193 7.0 17.0 0.00 1.24 0.51 98 1013.5
20200331054505 42 187 13.0 18.0 0.04 1.24 0.51 98 1014.5
20200331054005 42 195 9.0 15.0 0.04 1.24 0.51 98 1014.5
20200331053504 42 195 7.0 14.0 0.04 1.24 0.51 98 1014.5
20200331053005 42 183 10.0 17.0 0.04 1.24 0.51 98 1013.5
20200331052504 42 190 11.0 20.0 0.04 1.24 0.51 98 1013.5
20200331052005 42 189 12.0 17.0 0.04 1.24 0.51 98 1013.5
20200331051505 42 198 9.0 13.0 0.04 1.24 0.51 98 1013.5
20200331051005 42 202 6.0 10.0 0.04 1.24 0.51 98 1013.5
20200331050505 42 176 9.0 20.0 0.04 1.24 0.51 98 1013.5
20200331050005 42 196 4.0 8.0 0.38 1.24 0.51 98 1013.5
20200331045504 42 202 4.0 6.0 0.51 1.24 0.51 98 1013.5
20200331045005 42 197 5.0 7.0 0.51 1.24 0.51 97 1013.5
20200331044506 41 202 2.0 6.0 0.47 1.20 0.47 98 1014.5
20200331044005 41 202 3.0 5.0 0.47 1.20 0.47 97 1014.5
20200331043505 41 202 2.0 3.0 0.47 1.20 0.47 97 1014.5
20200331043005 41 192 5.0 8.0 0.47 1.20 0.47 97 1014.5
20200331042505 41 202 2.0 6.0 0.47 1.20 0.47 97 1014.5
20200331042005 41 199 2.0 6.0 0.47 1.20 0.47 97 1014.5
20200331041505 41 187 3.0 8.0 0.47 1.20 0.47 97 1014.5
20200331041010 42 202 3.0 8.0 0.47 1.20 0.47 97 1014.5
20200331040505 42 197 6.0 8.0 0.47 1.20 0.47 97 1014.5
20200331040005 32 0 0.0 0.0 0.13 0.30 0.13 100 1014.5